Regional Weather Roundup
Issued by NWS

Home | Current Version | Previous Version | Text Only | Print | Product List | Glossary Off
Versions: 1 2 3 4 5 6 7 8 9 10 11 12 13 14 15 16 17 18 19 20 21 22 23 24 25 26 27 28 29 30 31 32 33 34 35 36 37 38 39 40 41 42 43 44 45 46 47 48 49 50

000
ASUS43 KMKX 011500
RWRWI

WISCONSIN REGIONAL WEATHER ROUNDUP
NATIONAL WEATHER SERVICE MILWAUKEE/SULLIVAN WI
1000 AM CDT MON SEP 01 2014

NOTE: "FAIR" INDICATES FEW OR NO CLOUDS BELOW 12,000 FEET WITH NO
SIGNIFICANT WEATHER AND/OR OBSTRUCTIONS TO VISIBILITY.

WIZ001-002-006>008-014>016-023>028-011600-
NORTHWEST WISCONSIN

CITY           SKY/WX    TMP DP  RH WIND       PRES   REMARKS
SUPERIOR ARPT  CLOUDY    65  62  87 NW3       29.62R
ASHLAND        CLOUDY    66  64  93 VRB3      29.61S
HAYWARD        CLOUDY    65  63  93 CALM      29.65R
SIREN          CLOUDY    64  63  96 W5        29.66R
RICE LAKE      CLOUDY    66  63  91 W6        29.67R
LADYSMITH      CLOUDY    64  63  96 S7        29.66F
EAU CLAIRE     CLOUDY    66  65  96 SW6       29.64S
MENOMONIE      CLOUDY    66  65  99 SW7       29.65S
NEW RICHMOND   PTSUNNY   66  64  94 W6        29.67R
OSCEOLA        CLOUDY    66  66 100 CALM      29.68R
$$

WIZ003>005-009-010-017-018-011600-
NORTH CENTRAL WISCONSIN

CITY           SKY/WX    TMP DP  RH WIND       PRES   REMARKS
WOODRUFF       LGT RAIN  63  61  92 SW8G16    29.66S
RHINELANDER    RAIN      62  61  96 SW8       29.68S FOG
EAGLE RIVER    LGT RAIN  63  63 100 S3        29.66F
LAND O LAKES   DRIZZLE   64  62  94 SW3       29.66F
PHILLIPS       RAIN      62  61  97 SW8       29.66R
TOMAHAWK       RAIN      62  60  94 CALM      29.68S
MEDFORD        RAIN      62  61  97 W7        29.68S
MERRILL        RAIN      64  62  94 SW3       29.68S
$$

WIZ029-030-035-036-043>047-011600-
CENTRAL WISCONSIN

CITY           SKY/WX    TMP DP  RH WIND       PRES   REMARKS
WAUSAU         RAIN      64  62  93 SW8       29.67S FOG
MOSINEE        LGT RAIN  63  63 100 SW10      29.70S
MARSHFIELD     LGT RAIN  64  64 100 SW6       29.68F
STEVENS POINT  DRIZZLE   63  61  93 SW6       29.70S
WAUPACA        CLOUDY    68  66  91 SW6       29.70S
WAUTOMA        CLOUDY    66  64  94 SW7       29.72R
WISC RAPIDS    LGT RAIN  65  63  93 S6        29.70F
CAMP DOUGLAS   LGT RAIN  66  66 100 S7        29.70F
$$

WIZ011>013-019>022-031-037>040-048>050-011600-
NORTHEAST WISCONSIN

CITY           SKY/WX    TMP DP  RH WIND       PRES   REMARKS
ANTIGO         LGT RAIN  62  61  97 SW7       29.69F
STURGEON BAY   CLOUDY    70  66  88 S9        29.70R
GREEN BAY      RAIN      70  67  90 SW10      29.72R FOG
MANITOWOC      LGT RAIN  72  70  94 SW7       29.71R FOG
APPLETON       RAIN      66  64  94 SW13      29.73R
CLINTONVILLE   LGT RAIN  66  63  88 W6        29.69R
OSHKOSH        LGT RAIN  69  65  86 SW7       29.72R
$$

WIZ032>034-041-042-053>061-011600-
SOUTHWEST WISCONSIN

CITY           SKY/WX    TMP DP  RH WIND       PRES   REMARKS
LA CROSSE      CLOUDY    69  65  86 S10       29.66F
SPARTA         HVY RAIN  64  63  94 S6        29.69F
VIROQUA        CLOUDY    64  64 100 SW7       29.71S
BOSCOBEL       LGT RAIN  67  64  90 S7        29.72S FOG
PRAIRIE DU CHI CLOUDY    66  64  91 S7        29.71S FOG
PLATTEVILLE    FAIR      70  65  85 SW13      29.75F
$$

WIZ056-057-062-063-064-067-068-011600-
SOUTH CENTRAL WISCONSIN

CITY           SKY/WX    TMP DP  RH WIND       PRES   REMARKS
BARABOO/DELLS  CLOUDY    70  60  68 SW9       29.72S
LONE ROCK      NOT AVBL
WATERTOWN      CLOUDY    70  70 100 W3        29.71F
MADISON        CLOUDY    71  63  75 SW7       29.72F
MIDDLETON      FAIR      71  63  75 SW7       29.73S
MONROE         CLOUDY    68  63  83 SW12      29.75R
JANESVILLE     PTSUNNY   72  68  88 SW10      29.74R
$$

WIZ051-052-058>065-066-070>072-011600-
SOUTHEAST WISCONSIN

CITY           SKY/WX    TMP DP  RH WIND       PRES   REMARKS
MILWAUKEE      LGT RAIN  74  69  85 SW13      29.73R
WAUKESHA       LGT RAIN  70  68  94 SW7       29.74R FOG
MILWAUKEE/TIMM LGT RAIN  72  68  88 SW8       29.73R FOG
RACINE         PTSUNNY   75  69  81 SW13G21   29.75R
BURLINGTON     PTSUNNY   70  68  92 SW10      29.74R
KENOSHA        CLOUDY    74  70  87 SW12      29.75R
FOND DU LAC    CLOUDY    69  64  84 SW6       29.72S
SHEBOYGAN      RAIN      71  69  93 W7        29.72R FOG
WEST BEND      LGT RAIN  70  66  88 SW6       29.73R
JUNEAU         CLOUDY    67  65  92 W6        29.74F
$$

LSZ147-162-011600-
LAKE SUPERIOR

STATION/POSITION TIME  TEMP    WIND        PRES    WAVE
                       AIR SEA DIR/SP/G            HT/PER
                 (UTC) (F)     (DEG/KT/KT) (MB)    (FT/S)
W MID LAKE BUOY  1350   60 58  240/ 14/ 16 1001.1R   2/ 4
DEVILS ISLAND    1400   63     240/ 14/ 16 1001.5F
PORT WING        1400   65     250/  7/ 10 1002.7
SAXON HARBOR     1400   65     180/  3/  6 1002.4F
$$

LMZ867-665-643>646-011600-
LAKE MICHIGAN

STATION/POSITION TIME  TEMP    WIND        PRES    WAVE
                       AIR SEA DIR/SP/G            HT/PER
                 (UTC) (F)     (DEG/KT/KT) (MB)    (FT/S)
N MID LAKE BUOY  1350   68 65  190/ 19/ 21 1004.1F   4/ 5
NORTHPORT PIER   1400   68     160/  7/ 15 1004.7S
KEWAUNEE LAKESHO 1400   65     190/ 11/ 14 1004.6R
SHEBOYGAN LAKESH 1400   69 57  200/ 14/ 15 1005.4R
ATWATER BUOY     1400   70     180/  8/  8 1006.9R
MILWAUKEE LAKESH 1400   74     200/ 12/ 15   N/A
S MID LAKE BUOY  1350   72 69  170/ 19/ 21 1005.8F   3/ 4
KENOSHA   LAKESH 1400   76     200/ 11/ 19 1005.8S
$$

TC  - TEMPERATURE IN CELSIUS
VSB - VISIBILITY IN STATUTE MILES
WCI - WIND CHILL INDEX
HX  - HEAT INDEX




USA.gov is the U.S. government's official web portal to all federal, state and local government web resources and services.